[[{"header":{"parameterUnit":"m.s-1","parameterCategory":1,"la1":30.2991,"la2":30.254,"lo1":-89.0895,"lo2":-89.0444,"dy":0.0017,"dx":0.0017,"nx":28,"ny":28,"refTime":"2025-05-01T03:00:00:Z","depth":0,"parameterNumber":2,"parameterNumberName":"U-component_of_WINDS"},"data":[0,0,0,0,0,0,0,0,0,0,0,0,0,0,0,0,0,0,0,0,0,0,0,0,0,0,0,0,0,0,0,0,0,0,0,0,0,0,0,0,0,0,0,0,0,0,0,0,0,0,0,0,0,0,0,0,0,0,-0.4972,-0.4973,0,-0.5044,-0.5044,-0.5045,-0.5073,-0.5073,-0.5073,-0.5073,-0.515,-0.5152,-0.5154,0,0,0,0,0,0,0,0,0,0,0,0,0,-0.4863,-0.4865,-0.4972,-0.4973,-0.4973,-0.5043,-0.5044,-0.5045,-0.5073,-0.5073,-0.5073,-0.5072,-0.5149,-0.5152,-0.5155,0,0,0,0,0,0,0,0,0,0,0,0,0,-0.492,-0.4866,-0.4972,-0.4996,-0.4999,-0.5043,-0.5044,-0.5046,-0.5073,-0.5073,-0.5073,-0.5072,-0.5148,-0.5152,-0.5155,-0.5182,0,0,-0.5165,-0.5167,0,0,0,0,0,0,0,0,-0.4917,-0.4924,-0.4991,-0.4994,-0.4997,-0.5049,-0.5035,-0.5092,-0.5073,-0.5045,-0.5073,-0.5072,-0.5117,-0.5123,-0.5137,-0.5186,-0.5189,-0.5166,-0.5168,-0.5169,-0.517,0,0,0,0,0,0,0,-0.4913,-0.4922,-0.5,-0.4992,-0.4996,-0.5005,-0.5012,-0.5046,-0.5082,-0.5047,-0.505,-0.5058,-0.5118,-0.5134,-0.5139,-0.519,-0.5165,-0.5168,-0.517,-0.5172,-0.5266,-0.5267,0,0,0,0,0,0,-0.4905,-0.4918,-0.4998,-0.5002,-0.4956,-0.5007,-0.5015,-0.5033,-0.5082,-0.5089,-0.5058,-0.5059,-0.5128,-0.5135,-0.5142,-0.5178,-0.5169,-0.5172,-0.5174,-0.5266,-0.5267,-0.5267,0,0,0,0,0,0,-0.4902,-0.4911,-0.4995,-0.4961,-0.4972,-0.5009,-0.5028,-0.5034,-0.505,-0.5089,-0.5096,-0.5066,-0.5128,-0.5137,-0.5172,-0.5181,-0.5174,-0.5177,-0.5265,-0.5266,-0.5267,-0.525,0,0,0,0,0,0,-0.4899,-0.491,-0.492,-0.4961,-0.4974,-0.5022,-0.5029,-0.5036,-0.5055,-0.5057,-0.5099,-0.5106,-0.5129,-0.5167,-0.5175,-0.5186,-0.5179,-0.5265,-0.5266,-0.5267,-0.525,-0.525,-0.525,0,0,0,0,0,-0.4895,-0.4913,-0.492,-0.493,-0.4986,-0.5023,-0.5031,-0.5055,-0.5055,-0.5066,-0.5092,-0.5105,-0.5178,-0.517,-0.518,-0.5191,-0.5264,-0.5265,-0.5266,-0.525,-0.525,-0.525,0,0,0,0,0,0,-0.4873,-0.4918,-0.4927,-0.4958,-0.4986,-0.5027,-0.5042,-0.5054,-0.5084,-0.5084,-0.5115,-0.5124,-0.5157,-0.5178,-0.5167,-0.5221,-0.5223,-0.5226,-0.5206,-0.5207,-0.5207,-0.5201,-0.5182,0,0,0,0,0,-0.4871,-0.4896,-0.4935,-0.4959,-0.4972,-0.5004,-0.5021,-0.5038,-0.5069,-0.5081,-0.5109,-0.514,-0.517,-0.519,-0.5219,-0.5253,-0.5263,-0.5266,-0.5266,-0.5265,-0.5268,-0.5289,-0.5291,-0.5271,-0.5271,-0.5271,0,0,-0.4869,-0.4897,-0.4911,-0.4955,-0.4979,-0.5005,-0.5014,-0.5042,-0.5062,-0.5086,-0.512,-0.5142,-0.5178,-0.5213,-0.5229,-0.5231,-0.5276,-0.5267,-0.5266,-0.5269,-0.529,-0.5292,-0.5294,-0.5271,-0.5271,-0.5271,0,0,-0.4878,-0.4901,-0.4924,-0.4948,-0.4983,-0.5005,-0.501,-0.505,-0.5065,-0.51,-0.5118,-0.5144,-0.5195,-0.522,-0.524,-0.526,-0.5274,-0.5269,-0.527,-0.529,-0.5292,-0.5293,-0.5302,-0.5304,-0.5271,-0.5271,-0.5271,0,-0.4871,-0.491,-0.4935,-0.4961,-0.4981,-0.5002,-0.5027,-0.5049,-0.5093,-0.5107,-0.5108,-0.5173,-0.5199,-0.5241,-0.5246,-0.526,-0.5269,-0.5265,-0.5289,-0.5291,-0.5293,-0.5302,-0.5304,-0.5271,-0.5271,-0.5271,-0.5271,0,-0.4901,-0.4928,-0.4942,-0.4983,-0.5004,-0.503,-0.506,-0.5079,-0.5094,-0.5115,-0.5152,-0.5184,-0.5221,-0.5232,-0.5247,-0.5276,-0.5277,-0.5283,-0.5285,-0.5294,-0.5302,-0.5306,-0.527,-0.527,-0.527,-0.527,0,0,-0.4898,-0.4952,-0.4957,-0.4977,-0.5018,-0.504,-0.5067,-0.5103,-0.5119,-0.5149,-0.5174,-0.5217,-0.5224,-0.5246,-0.5264,-0.5282,-0.5298,-0.5286,-0.5288,-0.5288,-0.5334,-0.5329,-0.5332,-0.5306,-0.5307,-0.5308,-0.5331,0,-0.4913,-0.4961,-0.4985,-0.5023,-0.505,-0.5071,-0.5095,-0.5124,-0.5145,-0.5172,-0.5197,-0.5227,-0.5233,-0.5247,-0.5265,-0.5292,-0.5307,-0.529,-0.5331,-0.5333,-0.5322,-0.5337,-0.5332,-0.5352,-0.5334,-0.5335,-0.5335,0,-0.4938,-0.4967,-0.5007,-0.5047,-0.5059,-0.508,-0.5115,-0.514,-0.5174,-0.5188,-0.5214,-0.5231,-0.5263,-0.5262,-0.5307,-0.5295,-0.5313,-0.5329,-0.5331,-0.5336,-0.5335,-0.5344,-0.5359,-0.5363,-0.5341,-0.534,-0.534,0,-0.4933,-0.4982,-0.5013,-0.5029,-0.5075,-0.509,-0.511,-0.5144,-0.5164,-0.5196,-0.521,-0.5245,-0.5264,-0.5291,-0.5319,-0.5316,-0.5362,-0.5363,-0.5376,-0.5376,-0.5386,-0.5385,-0.5405,-0.5396,-0.5396,-0.5396,-0.5395,0,-0.4948,-0.4973,-0.5012,-0.5031,-0.506,-0.5087,-0.5116,-0.5138,-0.5168,-0.5193,-0.5214,-0.5238,-0.5272,-0.5301,-0.5323,-0.5358,-0.5366,-0.538,-0.5386,-0.5379,-0.5377,-0.5392,-0.5392,-0.5396,-0.5396,-0.5396,-0.5396,0,-0.4948,-0.4975,-0.501,-0.5051,-0.5062,-0.5082,-0.5118,-0.5138,-0.5161,-0.5193,-0.5202,-0.5239,-0.5273,-0.5304,-0.535,-0.5365,-0.5401,-0.5407,-0.5389,-0.5392,-0.5404,-0.5403,-0.5436,-0.5442,-0.5427,-0.5427,-0.5427,0,-0.4956,-0.4975,-0.5018,-0.5036,-0.5056,-0.5084,-0.5105,-0.5134,-0.5155,-0.5196,-0.5212,-0.5248,-0.5279,-0.5334,-0.5365,-0.5401,-0.541,-0.5419,-0.5415,-0.5408,-0.5411,-0.541,-0.5413,-0.5419,-0.5419,-0.5419,-0.5419,0,-0.4968,-0.4981,-0.5009,-0.5043,-0.5067,-0.5095,-0.5124,-0.5138,-0.5173,-0.5196,-0.5231,-0.5255,-0.5302,-0.5338,-0.5378,-0.5401,-0.5416,-0.542,-0.5425,-0.5418,-0.5408,-0.5415,-0.5391,-0.5419,-0.5419,-0.5419,-0.5419,-0.5419,-0.4973,-0.4992,-0.5025,-0.5057,-0.5082,-0.5108,-0.513,-0.5156,-0.5185,-0.5225,-0.5241,-0.5277,-0.5313,-0.5368,-0.5391,-0.5421,-0.5423,-0.543,-0.5433,-0.5434,-0.5434,-0.5402,-0.5428,-0.5428,-0.5428,-0.5428,-0.5428,0,-0.4987,-0.501,-0.5039,-0.5079,-0.5104,-0.5115,-0.5148,-0.5169,-0.5201,-0.5232,-0.5262,-0.5304,-0.5339,-0.5374,-0.5412,-0.543,-0.5438,-0.5439,-0.5438,-0.5444,-0.5429,-0.5421,-0.5432,-0.5432,-0.5432,-0.5432,-0.5432,-0.5432,-0.4998,-0.5031,-0.5047,-0.5094,-0.5117,-0.5152,-0.517,-0.5196,-0.5221,-0.5266,-0.5296,-0.5318,-0.5351,-0.5392,-0.5426,-0.5435,-0.5449,-0.5448,-0.546,-0.5445,-0.5445,-0.5444,-0.5437,-0.5451,-0.5451,-0.5473,-0.5473,-0.5473]},{"header":{"parameterUnit":"m.s-1","parameterCategory":1,"la1":30.2991,"la2":30.254,"lo1":-89.0895,"lo2":-89.0444,"dy":0.0017,"dx":0.0017,"nx":28,"ny":28,"refTime":"2025-05-01T03:00:00:Z","depth":0,"parameterNumber":3,"parameterNumberName":"V-component_of_WINDS"},"data":[0,0,0,0,0,0,0,0,0,0,0,0,0,0,0,0,0,0,0,0,0,0,0,0,0,0,0,0,0,0,0,0,0,0,0,0,0,0,0,0,0,0,0,0,0,0,0,0,0,0,0,0,0,0,0,0,0,0,6.2915,6.2915,0,6.2924,6.2924,6.2924,6.288,6.2878,6.2877,6.2876,6.2884,6.2885,6.2886,0,0,0,0,0,0,0,0,0,0,0,0,0,6.2857,6.2858,6.2915,6.2915,6.2915,6.2924,6.2924,6.2924,6.288,6.2878,6.2877,6.2875,6.2883,6.2885,6.2887,0,0,0,0,0,0,0,0,0,0,0,0,0,6.2876,6.2858,6.2915,6.2894,6.2892,6.2924,6.2924,6.2924,6.288,6.2878,6.2876,6.2875,6.2883,6.2885,6.2887,6.2938,0,0,6.2893,6.2894,0,0,0,0,0,0,0,0,6.2875,6.2878,6.2897,6.2896,6.2894,6.2899,6.2906,6.2929,6.2881,6.2885,6.2876,6.2874,6.289,6.2892,6.2897,6.2939,6.2939,6.2893,6.2895,6.2896,6.2896,0,0,0,0,0,0,0,6.2873,6.2877,6.2918,6.2897,6.2895,6.2884,6.2884,6.2911,6.2898,6.2884,6.2881,6.2883,6.2889,6.2896,6.2897,6.2939,6.2893,6.2895,6.2897,6.2897,6.3021,6.3023,0,0,0,0,0,0,6.2875,6.2876,6.2918,6.2919,6.2879,6.2886,6.2887,6.2899,6.2898,6.2896,6.2885,6.2881,6.2893,6.2895,6.2897,6.2956,6.2896,6.2898,6.2899,6.3019,6.3022,6.3024,0,0,0,0,0,0,6.2874,6.2879,6.2918,6.2897,6.2901,6.2889,6.2903,6.29,6.2907,6.2898,6.2895,6.2894,6.2891,6.2894,6.2928,6.2955,6.2898,6.29,6.3017,6.302,6.3023,6.3074,0,0,0,0,0,0,6.2872,6.2879,6.2899,6.2897,6.2902,6.2949,6.2905,6.2902,6.2911,6.2906,6.2906,6.2904,6.289,6.2925,6.293,6.2957,6.2902,6.3014,6.3018,6.3022,6.307,6.3078,6.3086,0,0,0,0,0,6.2871,6.2913,6.29,6.2905,6.2927,6.2951,6.2953,6.2937,6.2913,6.2932,6.2927,6.2904,6.2953,6.2929,6.2934,6.2962,6.3013,6.3017,6.3022,6.3066,6.3077,6.3086,0,0,0,0,0,0,6.2917,6.2912,6.2898,6.2941,6.2947,6.2943,6.2967,6.2949,6.2961,6.2956,6.2935,6.2935,6.2972,6.2971,6.2945,6.3012,6.2978,6.2984,6.301,6.302,6.3028,6.3026,6.2904,0,0,0,0,0,6.2933,6.2953,6.2948,6.2986,6.299,6.2978,6.2988,6.2975,6.298,6.2982,6.2978,6.2983,6.2999,6.301,6.3025,6.3071,6.3069,6.3092,6.3101,6.3107,6.3111,6.3134,6.3144,6.3039,6.3039,6.3039,0,0,6.2964,6.2964,6.2978,6.2996,6.2998,6.3019,6.298,6.3004,6.3019,6.2985,6.3016,6.3014,6.3018,6.3058,6.3075,6.3058,6.314,6.3113,6.3118,6.3119,6.3139,6.3149,6.3158,6.3042,6.3042,6.3041,0,0,6.3032,6.3035,6.3066,6.307,6.3075,6.3067,6.3075,6.3074,6.3072,6.3103,6.3078,6.3095,6.3124,6.3127,6.3132,6.3202,6.3181,6.3208,6.3248,6.3271,6.3279,6.3286,6.3308,6.3317,6.3213,6.3213,6.3213,0,6.307,6.3101,6.3085,6.311,6.3118,6.309,6.312,6.3125,6.3134,6.314,6.3121,6.3156,6.3157,6.3196,6.3213,6.3219,6.3226,6.3206,6.3279,6.3286,6.3292,6.3314,6.3322,6.3216,6.3216,6.3215,6.3215,0,6.3146,6.3168,6.3193,6.3203,6.3214,6.3242,6.323,6.3243,6.3229,6.3223,6.3255,6.3255,6.3268,6.3278,6.3265,6.3315,6.3304,6.3283,6.3248,6.3306,6.3325,6.3333,6.322,6.3219,6.3218,6.3218,0,0,6.3241,6.3243,6.3252,6.3255,6.3259,6.3275,6.3302,6.3315,6.3326,6.3334,6.3354,6.338,6.336,6.3367,6.3354,6.3374,6.3427,6.335,6.335,6.3362,6.3479,6.3493,6.3502,6.3414,6.3415,6.3417,6.3478,0,6.3305,6.3351,6.3337,6.3383,6.3402,6.3376,6.3399,6.3403,6.3399,6.3413,6.3408,6.3426,6.34,6.3403,6.3422,6.3416,6.3449,6.3412,6.3431,6.3432,6.3427,6.3513,6.3527,6.3585,6.3485,6.3487,6.3488,0,6.3385,6.3396,6.3444,6.3443,6.3451,6.3472,6.3483,6.3498,6.3502,6.3498,6.3505,6.3489,6.3514,6.3482,6.3516,6.3491,6.3498,6.3497,6.3499,6.3497,6.3461,6.3511,6.3603,6.3611,6.35,6.3499,6.3498,0,6.3446,6.3473,6.3504,6.3509,6.351,6.3525,6.3526,6.3529,6.3538,6.3548,6.3553,6.3566,6.3572,6.3582,6.3569,6.3548,6.3604,6.3571,6.3599,6.3599,6.3609,6.3608,6.3701,6.3619,6.3619,6.3619,6.3619,0,6.3517,6.3546,6.3532,6.3551,6.3582,6.3567,6.3599,6.3597,6.36,6.3617,6.3597,6.3613,6.3597,6.3612,6.3603,6.3631,6.3634,6.363,6.3626,6.363,6.363,6.3632,6.3627,6.3621,6.3621,6.362,6.362,0,6.3589,6.3581,6.3613,6.3612,6.3612,6.3635,6.3634,6.3651,6.3646,6.3668,6.3673,6.3664,6.368,6.367,6.3687,6.368,6.3716,6.3709,6.3714,6.3711,6.3739,6.3735,6.3833,6.3845,6.3758,6.3759,6.376,0,6.3633,6.3655,6.3657,6.3667,6.367,6.3687,6.3696,6.3683,6.3692,6.3699,6.3715,6.373,6.3741,6.3769,6.3764,6.3776,6.3767,6.3801,6.3769,6.3771,6.3765,6.3762,6.3763,6.3806,6.3807,6.3808,6.3809,0,6.3712,6.3707,6.3721,6.3733,6.3745,6.3754,6.3761,6.3771,6.3757,6.377,6.3787,6.3796,6.3813,6.3827,6.3838,6.3839,6.3821,6.382,6.3826,6.3828,6.383,6.3827,6.3729,6.3817,6.3816,6.3815,6.3815,6.3815,6.3769,6.3787,6.3791,6.3807,6.3811,6.3819,6.3834,6.3831,6.3845,6.3858,6.385,6.387,6.3873,6.3886,6.3888,6.3903,6.3889,6.3899,6.3901,6.3903,6.3906,6.383,6.3905,6.3905,6.3905,6.3905,6.3905,0,6.3845,6.3846,6.3861,6.3872,6.3885,6.3869,6.3876,6.3887,6.3905,6.391,6.3922,6.3941,6.3955,6.3952,6.3964,6.3977,6.3969,6.398,6.3978,6.3978,6.3919,6.3911,6.3986,6.3986,6.3986,6.3986,6.3986,6.3986,6.3885,6.3913,6.3909,6.3939,6.394,6.396,6.3965,6.3971,6.3975,6.3998,6.4009,6.4007,6.4009,6.4021,6.4033,6.4032,6.4036,6.405,6.4046,6.399,6.3982,6.3974,6.3966,6.4052,6.4052,6.4103,6.4103,6.4103]}]]